| time (UTC) | temp C | wind direction | speed KPH | gust KPH | rain 1hr cm | rain 24hr cm | rain mn cm | humidity % | barometer mb |
| 20260506094703 | 10 | 316 | 1.6 | 11.3 | 0.00 | 0.00 | 0.00 | 75 | 1014.9 |
| 20260506094204 | 10 | 334 | 3.2 | 4.8 | 0.00 | 0.00 | 0.00 | 75 | 1015.0 |
| 20260506093704 | 10 | 280 | 3.2 | 4.8 | 0.00 | 0.00 | 0.00 | 76 | 1015.0 |
| 20260506093204 | 10 | 328 | 3.2 | 4.8 | 0.00 | 0.00 | 0.00 | 76 | 1015.1 |
| 20260506092704 | 10 | 321 | 1.6 | 4.8 | 0.00 | 0.00 | 0.00 | 76 | 1015.1 |
| 20260506092204 | 10 | 312 | 3.2 | 8.0 | 0.00 | 0.00 | 0.00 | 77 | 1015.0 |
| 20260506091704 | 9 | 323 | 3.2 | 8.0 | 0.00 | 0.00 | 0.00 | 77 | 1015.1 |
| 20260506091203 | 8 | 101 | 1.6 | 4.8 | 0.00 | 0.00 | 0.00 | 77 | 1015.1 |
| 20260506090704 | 8 | 82 | 4.8 | 9.7 | 0.00 | 0.00 | 0.00 | 77 | 1015.1 |
| 20260506090203 | 8 | 48 | 1.6 | 3.2 | 0.00 | 0.00 | 0.00 | 77 | 1015.2 |
| 20260506085703 | 7 | 45 | 4.8 | 8.0 | 0.00 | 0.00 | 0.00 | 76 | 1015.2 |
| 20260506084704 | 8 | 81 | 4.8 | 11.3 | 0.00 | 0.00 | 0.00 | 78 | 1015.3 |
| 20260506084204 | 8 | 302 | 4.8 | 8.0 | 0.00 | 0.00 | 0.00 | 78 | 1015.3 |
| 20260506083704 | 8 | 321 | 4.8 | 9.7 | 0.00 | 0.00 | 0.00 | 79 | 1015.4 |
| 20260506083203 | 8 | 317 | 1.6 | 8.0 | 0.00 | 0.00 | 0.00 | 81 | 1015.4 |
| 20260506082204 | 7 | 276 | 3.2 | 4.8 | 0.00 | 0.00 | 0.00 | 82 | 1015.5 |
| 20260506081704 | 7 | 142 | 4.8 | 8.0 | 0.00 | 0.00 | 0.00 | 83 | 1015.5 |
| 20260506081204 | 7 | 203 | 3.2 | 4.8 | 0.00 | 0.00 | 0.00 | 84 | 1015.6 |
| 20260506080704 | 7 | 234 | 1.6 | 4.8 | 0.00 | 0.00 | 0.00 | 85 | 1015.7 |
| 20260506080204 | 7 | 236 | 1.6 | 4.8 | 0.00 | 0.00 | 0.00 | 84 | 1015.7 |
| 20260506073203 | 5 | 255 | 1.6 | 4.8 | 0.00 | 0.03 | 0.00 | 87 | 1015.7 |
| 20260506072704 | 5 | 234 | 1.6 | 4.8 | 0.00 | 0.05 | 0.00 | 87 | 1015.6 |
| 20260506072204 | 5 | 234 | 1.6 | 4.8 | 0.00 | 0.05 | 0.00 | 88 | 1015.7 |
| 20260506071704 | 4 | 256 | 3.2 | 4.8 | 0.00 | 0.05 | 0.00 | 88 | 1015.7 |
| 20260506071204 | 4 | 207 | 1.6 | 3.2 | 0.00 | 0.05 | 0.00 | 88 | 1015.8 |
| 20260506070204 | 3 | 165 | 0.0 | 0.0 | 0.00 | 0.05 | 0.00 | 89 | 1015.8 |
| 20260506062203 | 1 | 83 | 0.0 | 0.0 | 0.00 | 0.05 | 0.00 | 88 | 1015.7 |
| 20260506061704 | 0 | 83 | 0.0 | 0.0 | 0.00 | 0.05 | 0.00 | 88 | 1015.7 |
| 20260506061204 | 0 | 83 | 0.0 | 0.0 | 0.00 | 0.05 | 0.00 | 88 | 1015.7 |
| 20260506060703 | 0 | 83 | 0.0 | 0.0 | 0.00 | 0.05 | 0.00 | 88 | 1015.7 |
| 20260506060203 | 0 | 83 | 0.0 | 0.0 | 0.00 | 0.05 | 0.00 | 88 | 1015.7 |
| 20260506051205 | 0 | 82 | 0.0 | 0.0 | 0.00 | 0.05 | 0.00 | 87 | 1015.9 |
| 20260506050204 | -1 | 82 | 0.0 | 0.0 | 0.00 | 0.05 | 0.00 | 87 | 1016.0 |
| 20260506044704 | 0 | 82 | 0.0 | 0.0 | 0.00 | 0.05 | 0.00 | 87 | 1016.1 |
| 20260506043703 | 0 | 82 | 0.0 | 0.0 | 0.00 | 0.05 | 0.00 | 87 | 1016.1 |
| 20260506043203 | 0 | 82 | 0.0 | 0.0 | 0.00 | 0.05 | 0.00 | 87 | 1016.1 |
| 20260506042704 | 0 | 82 | 0.0 | 0.0 | 0.00 | 0.05 | 0.00 | 87 | 1016.1 |
| 20260506042204 | 0 | 82 | 0.0 | 0.0 | 0.00 | 0.05 | 0.00 | 87 | 1016.2 |
| 20260506041704 | 0 | 82 | 0.0 | 0.0 | 0.00 | 0.05 | 0.00 | 86 | 1016.2 |
| 20260506041203 | 0 | 82 | 0.0 | 0.0 | 0.00 | 0.05 | 0.00 | 86 | 1016.2 |
| 20260506040704 | 0 | 82 | 0.0 | 0.0 | 0.00 | 0.05 | 0.00 | 86 | 1016.3 |
| 20260506035703 | 0 | 82 | 0.0 | 0.0 | 0.00 | 0.05 | 0.00 | 86 | 1016.4 |
| 20260506034704 | 0 | 82 | 0.0 | 0.0 | 0.00 | 0.05 | 0.00 | 85 | 1016.4 |
| 20260506034204 | 0 | 82 | 0.0 | 0.0 | 0.00 | 0.05 | 0.00 | 85 | 1016.4 |
| 20260506033704 | 0 | 82 | 0.0 | 0.0 | 0.00 | 0.05 | 0.00 | 85 | 1016.4 |
| 20260506032704 | 0 | 82 | 0.0 | 0.0 | 0.00 | 0.05 | 0.00 | 85 | 1016.4 |
| 20260506032203 | 0 | 82 | 0.0 | 0.0 | 0.00 | 0.05 | 0.00 | 85 | 1016.4 |
| 20260506031704 | 0 | 82 | 0.0 | 0.0 | 0.00 | 0.05 | 0.00 | 85 | 1016.4 |
| 20260506031204 | 0 | 82 | 0.0 | 0.0 | 0.00 | 0.05 | 0.00 | 84 | 1016.4 |
| 20260506030704 | 0 | 82 | 0.0 | 0.0 | 0.00 | 0.05 | 0.00 | 84 | 1016.5 |
| 20260506030204 | 0 | 82 | 0.0 | 0.0 | 0.00 | 0.05 | 0.00 | 84 | 1016.6 |
| 20260506025703 | 0 | 82 | 0.0 | 0.0 | 0.00 | 0.05 | 0.00 | 84 | 1016.5 |
| 20260506025204 | 0 | 82 | 0.0 | 0.0 | 0.00 | 0.05 | 0.00 | 84 | 1016.6 |
| 20260506024203 | 0 | 82 | 0.0 | 0.0 | 0.00 | 0.05 | 0.00 | 83 | 1016.7 |
| 20260506023704 | 0 | 82 | 0.0 | 0.0 | 0.00 | 0.05 | 0.00 | 83 | 1016.7 |
| 20260506022704 | 1 | 82 | 0.0 | 0.0 | 0.00 | 0.05 | 0.00 | 83 | 1016.7 |
| 20260506022204 | 1 | 82 | 0.0 | 0.0 | 0.00 | 0.05 | 0.00 | 83 | 1016.7 |
| 20260506021703 | 1 | 82 | 0.0 | 0.0 | 0.00 | 0.05 | 0.00 | 83 | 1016.7 |
| 20260506021204 | 1 | 82 | 0.0 | 0.0 | 0.00 | 0.05 | 0.00 | 83 | 1016.7 |
| 20260506020703 | 1 | 82 | 0.0 | 0.0 | 0.00 | 0.05 | 0.00 | 83 | 1016.7 |
| 20260506020203 | 1 | 82 | 0.0 | 0.0 | 0.00 | 0.05 | 0.00 | 83 | 1016.8 |
| 20260506015204 | 1 | 82 | 0.0 | 0.0 | 0.00 | 0.05 | 0.00 | 83 | 1016.7 |
| 20260506014703 | 1 | 82 | 0.0 | 0.0 | 0.00 | 0.05 | 0.00 | 82 | 1016.7 |
| 20260506014204 | 2 | 82 | 0.0 | 0.0 | 0.00 | 0.05 | 0.00 | 82 | 1016.6 |
| 20260506013204 | 2 | 93 | 0.0 | 1.6 | 0.00 | 0.05 | 0.00 | 81 | 1016.7 |
| 20260506012703 | 2 | 103 | 1.6 | 3.2 | 0.00 | 0.05 | 0.00 | 81 | 1016.8 |
| 20260506012204 | 3 | 103 | 0.0 | 1.6 | 0.00 | 0.05 | 0.00 | 81 | 1016.9 |
| 20260506010703 | 3 | 103 | 0.0 | 0.0 | 0.00 | 0.05 | 0.00 | 81 | 1017.0 |
| 20260506010205 | 3 | 103 | 0.0 | 1.6 | 0.00 | 0.05 | 0.00 | 81 | 1017.1 |
| 20260506005704 | 3 | 103 | 1.6 | 3.2 | 0.00 | 0.05 | 0.00 | 81 | 1017.1 |
| 20260506005204 | 4 | 31 | 0.0 | 1.6 | 0.00 | 0.05 | 0.00 | 80 | 1017.1 |
| 20260506004204 | 5 | 31 | 0.0 | 0.0 | 0.00 | 0.05 | 0.00 | 80 | 1017.3 |
| 20260506003703 | 5 | 32 | 0.0 | 1.6 | 0.00 | 0.05 | 0.00 | 80 | 1017.2 |
| 20260506003204 | 5 | 31 | 1.6 | 3.2 | 0.00 | 0.05 | 0.00 | 80 | 1017.4 |
| 20260506002703 | 5 | 31 | 0.0 | 1.6 | 0.00 | 0.05 | 0.00 | 80 | 1017.4 |
| 20260506002204 | 5 | 32 | 1.6 | 3.2 | 0.00 | 0.05 | 0.00 | 80 | 1017.4 |
| 20260506001704 | 5 | 14 | 1.6 | 4.8 | 0.00 | 0.05 | 0.00 | 80 | 1017.5 |
| 20260506001204 | 5 | 17 | 1.6 | 3.2 | 0.00 | 0.05 | 0.00 | 80 | 1017.4 |
| 20260506000205 | 5 | 5 | 0.0 | 1.6 | 0.00 | 0.05 | 0.00 | 80 | 1017.5 |
| 20260505235203 | 5 | 342 | 1.6 | 3.2 | 0.00 | 0.05 | 0.00 | 79 | 1017.4 |
| 20260505234703 | 5 | 342 | 0.0 | 1.6 | 0.00 | 0.05 | 0.00 | 79 | 1017.3 |
| 20260505234204 | 5 | 351 | 1.6 | 3.2 | 0.00 | 0.05 | 0.00 | 79 | 1017.3 |
| 20260505233704 | 6 | 20 | 0.0 | 1.6 | 0.00 | 0.05 | 0.00 | 79 | 1017.2 |
| 20260505233203 | 6 | 20 | 0.0 | 4.8 | 0.00 | 0.05 | 0.00 | 79 | 1017.2 |
| 20260505232703 | 6 | 45 | 3.2 | 9.7 | 0.00 | 0.05 | 0.00 | 78 | 1017.2 |
| 20260505231704 | 6 | 50 | 3.2 | 8.0 | 0.00 | 0.05 | 0.00 | 78 | 1017.3 |
| 20260505231204 | 6 | 69 | 4.8 | 8.0 | 0.00 | 0.05 | 0.00 | 78 | 1017.3 |
| 20260505230703 | 6 | 67 | 3.2 | 12.9 | 0.00 | 0.05 | 0.00 | 78 | 1017.5 |
| 20260505230203 | 6 | 69 | 8.0 | 11.3 | 0.00 | 0.05 | 0.00 | 78 | 1017.4 |
| 20260505225704 | 6 | 80 | 6.4 | 12.9 | 0.00 | 0.05 | 0.20 | 78 | 1017.5 |
| 20260505225204 | 6 | 68 | 6.4 | 12.9 | 0.00 | 0.05 | 0.20 | 78 | 1017.6 |
| 20260505224204 | 6 | 67 | 4.8 | 9.7 | 0.00 | 0.05 | 0.20 | 77 | 1017.6 |
| 20260505223703 | 6 | 64 | 8.0 | 14.5 | 0.00 | 0.05 | 0.20 | 78 | 1017.6 |
| 20260505223203 | 6 | 65 | 4.8 | 12.9 | 0.00 | 0.05 | 0.20 | 78 | 1017.6 |
| 20260505222704 | 6 | 52 | 4.8 | 12.9 | 0.00 | 0.05 | 0.20 | 78 | 1017.6 |
| 20260505222204 | 6 | 50 | 3.2 | 4.8 | 0.00 | 0.05 | 0.20 | 78 | 1017.5 |
| 20260505221703 | 6 | 25 | 3.2 | 8.0 | 0.00 | 0.05 | 0.20 | 79 | 1017.6 |
| 20260505221203 | 5 | 35 | 3.2 | 4.8 | 0.00 | 0.05 | 0.20 | 79 | 1017.6 |
| 20260505220204 | 5 | 58 | 1.6 | 4.8 | 0.00 | 0.05 | 0.20 | 79 | 1017.6 |
| 20260505215703 | 5 | 64 | 1.6 | 3.2 | 0.00 | 0.05 | 0.20 | 79 | 1017.6 |
| 20260505214203 | 6 | 57 | 1.6 | 3.2 | 0.00 | 0.05 | 0.20 | 80 | 1017.6 |
| 20260505213703 | 6 | 55 | 3.2 | 4.8 | 0.00 | 0.05 | 0.20 | 80 | 1017.6 |
| 20260505213203 | 6 | 31 | 1.6 | 3.2 | 0.00 | 0.05 | 0.20 | 81 | 1017.5 |
| 20260505212704 | 6 | 19 | 3.2 | 4.8 | 0.00 | 0.05 | 0.20 | 81 | 1017.5 |
| 20260505212204 | 6 | 350 | 3.2 | 4.8 | 0.00 | 0.05 | 0.20 | 81 | 1017.5 |
| 20260505211703 | 6 | 8 | 3.2 | 4.8 | 0.00 | 0.05 | 0.20 | 81 | 1017.4 |
| 20260505211203 | 6 | 25 | 1.6 | 4.8 | 0.00 | 0.05 | 0.20 | 81 | 1017.5 |
| 20260505210704 | 6 | 11 | 3.2 | 4.8 | 0.00 | 0.05 | 0.20 | 81 | 1017.4 |
| 20260505210204 | 6 | 28 | 3.2 | 4.8 | 0.00 | 0.05 | 0.20 | 82 | 1017.3 |
| 20260505205703 | 6 | 14 | 4.8 | 4.8 | 0.00 | 0.05 | 0.20 | 82 | 1017.3 |
| 20260505205203 | 6 | 11 | 3.2 | 4.8 | 0.00 | 0.05 | 0.20 | 81 | 1017.2 |
| 20260505204703 | 6 | 23 | 4.8 | 4.8 | 0.00 | 0.05 | 0.20 | 81 | 1017.4 |
| 20260505203204 | 7 | 22 | 3.2 | 4.8 | 0.00 | 0.05 | 0.20 | 81 | 1017.4 |
| 20260505202703 | 7 | 5 | 3.2 | 4.8 | 0.00 | 0.05 | 0.20 | 81 | 1017.4 |
| 20260505202203 | 7 | 17 | 1.6 | 4.8 | 0.00 | 0.05 | 0.20 | 80 | 1017.4 |
| 20260505201703 | 7 | 16 | 3.2 | 4.8 | 0.00 | 0.05 | 0.20 | 80 | 1017.3 |
| 20260505201203 | 7 | 21 | 4.8 | 4.8 | 0.00 | 0.05 | 0.20 | 80 | 1017.2 |
| 20260505200703 | 7 | 17 | 4.8 | 4.8 | 0.00 | 0.05 | 0.20 | 80 | 1017.3 |
| 20260505200203 | 7 | 18 | 3.2 | 4.8 | 0.00 | 0.05 | 0.20 | 80 | 1017.3 |
| 20260505195703 | 7 | 21 | 4.8 | 8.0 | 0.00 | 0.05 | 0.20 | 80 | 1017.4 |
| 20260505194704 | 8 | 26 | 4.8 | 9.7 | 0.00 | 0.05 | 0.20 | 79 | 1017.6 |
| 20260505194204 | 8 | 16 | 6.4 | 11.3 | 0.00 | 0.05 | 0.20 | 79 | 1017.6 |
| 20260505193703 | 8 | 15 | 4.8 | 12.9 | 0.00 | 0.05 | 0.20 | 79 | 1017.6 |
| 20260505193203 | 8 | 20 | 6.4 | 11.3 | 0.00 | 0.05 | 0.20 | 78 | 1017.5 |
| 20260505192704 | 8 | 21 | 8.0 | 11.3 | 0.00 | 0.05 | 0.20 | 78 | 1017.5 |
| 20260505191704 | 9 | 3 | 8.0 | 19.3 | 0.00 | 0.05 | 0.20 | 78 | 1017.4 |
| 20260505191203 | 9 | 2 | 9.7 | 14.5 | 0.00 | 0.05 | 0.20 | 78 | 1017.4 |
| 20260505190204 | 9 | 23 | 9.7 | 16.1 | 0.00 | 0.05 | 0.20 | 77 | 1017.4 |
| 20260505185703 | 9 | 16 | 9.7 | 16.1 | 0.00 | 0.05 | 0.20 | 77 | 1017.4 |
| 20260505185203 | 9 | 18 | 9.7 | 19.3 | 0.00 | 0.05 | 0.20 | 77 | 1017.4 |
| 20260505184703 | 9 | 20 | 9.7 | 16.1 | 0.00 | 0.05 | 0.20 | 77 | 1017.4 |
| 20260505184203 | 9 | 11 | 9.7 | 14.5 | 0.00 | 0.05 | 0.20 | 77 | 1017.4 |
| 20260505183703 | 9 | 6 | 4.8 | 12.9 | 0.00 | 0.05 | 0.20 | 77 | 1017.4 |
| 20260505183203 | 9 | 12 | 6.4 | 14.5 | 0.00 | 0.05 | 0.20 | 77 | 1017.5 |
| 20260505182703 | 9 | 17 | 9.7 | 16.1 | 0.00 | 0.05 | 0.20 | 77 | 1017.5 |
| 20260505182204 | 9 | 19 | 8.0 | 12.9 | 0.00 | 0.05 | 0.20 | 76 | 1017.4 |
| 20260505181204 | 10 | 20 | 9.7 | 16.1 | 0.00 | 0.05 | 0.20 | 76 | 1017.5 |
| 20260505180703 | 9 | 7 | 9.7 | 19.3 | 0.00 | 0.05 | 0.20 | 76 | 1017.4 |
| 20260505180203 | 9 | 17 | 6.4 | 19.3 | 0.00 | 0.05 | 0.20 | 76 | 1017.3 |
| 20260505175703 | 9 | 5 | 4.8 | 12.9 | 0.00 | 0.05 | 0.20 | 76 | 1017.4 |
| 20260505175203 | 9 | 7 | 8.0 | 19.3 | 0.00 | 0.05 | 0.20 | 76 | 1017.4 |
| 20260505174704 | 9 | 25 | 9.7 | 16.1 | 0.00 | 0.05 | 0.20 | 76 | 1017.4 |
| 20260505174204 | 10 | 18 | 11.3 | 19.3 | 0.00 | 0.05 | 0.20 | 76 | 1017.5 |
| 20260505173703 | 10 | 353 | 9.7 | 19.3 | 0.00 | 0.05 | 0.20 | 76 | 1017.4 |
| 20260505173204 | 10 | 15 | 9.7 | 19.3 | 0.00 | 0.05 | 0.20 | 75 | 1017.4 |
| 20260505172703 | 10 | 34 | 11.3 | 19.3 | 0.00 | 0.05 | 0.20 | 74 | 1017.4 |
| 20260505172203 | 10 | 15 | 11.3 | 19.3 | 0.00 | 0.05 | 0.20 | 74 | 1017.5 |
| 20260505171703 | 10 | 11 | 12.9 | 19.3 | 0.00 | 0.05 | 0.20 | 74 | 1017.4 |
| 20260505170204 | 11 | 28 | 8.0 | 16.1 | 0.00 | 0.05 | 0.20 | 71 | 1017.3 |
| 20260505165203 | 11 | 7 | 8.0 | 14.5 | 0.00 | 0.05 | 0.20 | 73 | 1017.4 |
| 20260505164704 | 11 | 359 | 8.0 | 14.5 | 0.00 | 0.05 | 0.20 | 71 | 1017.3 |
| 20260505164203 | 11 | 336 | 9.7 | 14.5 | 0.00 | 0.05 | 0.20 | 71 | 1017.4 |
| 20260505163704 | 11 | 29 | 6.4 | 19.3 | 0.00 | 0.05 | 0.20 | 71 | 1017.4 |
| 20260505162704 | 11 | 347 | 9.7 | 16.1 | 0.00 | 0.05 | 0.20 | 72 | 1017.4 |
| 20260505161703 | 11 | 19 | 11.3 | 19.3 | 0.00 | 0.05 | 0.20 | 73 | 1017.4 |
| 20260505161203 | 11 | 11 | 11.3 | 16.1 | 0.00 | 0.05 | 0.20 | 72 | 1017.5 |
| 20260505160704 | 11 | 350 | 9.7 | 19.3 | 0.00 | 0.05 | 0.20 | 75 | 1017.6 |
| 20260505153204 | 10 | 13 | 8.0 | 16.1 | 0.00 | 0.05 | 0.20 | 73 | 1017.7 |
| 20260505152704 | 11 | 8 | 6.4 | 14.5 | 0.00 | 0.05 | 0.20 | 73 | 1017.6 |
| 20260505152203 | 11 | 336 | 8.0 | 14.5 | 0.00 | 0.05 | 0.20 | 72 | 1017.5 |
| 20260505151204 | 11 | 355 | 8.0 | 14.5 | 0.00 | 0.05 | 0.20 | 71 | 1017.5 |
| 20260505150704 | 10 | 10 | 8.0 | 16.1 | 0.00 | 0.05 | 0.20 | 72 | 1017.5 |
| 20260505150204 | 10 | 337 | 4.8 | 19.3 | 0.00 | 0.05 | 0.20 | 71 | 1017.6 |
| 20260505140204 | 11 | 29 | 11.3 | 19.3 | 0.00 | 0.05 | 0.20 | 70 | 1017.8 |
| 20260505130204 | 11 | 313 | 6.4 | 14.5 | 0.00 | 0.05 | 0.20 | 75 | 1017.6 |
| 20260505124704 | 11 | 7 | 4.8 | 14.5 | 0.00 | 0.05 | 0.20 | 76 | 1017.7 |
| 20260505123204 | 11 | 6 | 11.3 | 20.9 | 0.00 | 0.05 | 0.20 | 75 | 1017.6 |
| 20260505122704 | 11 | 5 | 8.0 | 16.1 | 0.00 | 0.05 | 0.20 | 74 | 1017.6 |
| 20260505121703 | 11 | 331 | 4.8 | 12.9 | 0.00 | 0.05 | 0.20 | 76 | 1017.6 |
| 20260505120704 | 11 | 6 | 3.2 | 12.9 | 0.00 | 0.05 | 0.20 | 77 | 1017.6 |
| 20260505120204 | 11 | 21 | 4.8 | 12.9 | 0.00 | 0.05 | 0.20 | 77 | 1017.7 |
| 20260505115703 | 11 | 359 | 8.0 | 19.3 | 0.00 | 0.05 | 0.20 | 78 | 1017.8 |
| 20260505115203 | 11 | 11 | 9.7 | 14.5 | 0.00 | 0.05 | 0.20 | 78 | 1017.7 |
| 20260505114703 | 10 | 24 | 9.7 | 20.9 | 0.00 | 0.05 | 0.20 | 78 | 1017.7 |
| 20260505114203 | 10 | 351 | 8.0 | 16.1 | 0.00 | 0.05 | 0.20 | 79 | 1017.7 |
| 20260505113703 | 10 | 343 | 9.7 | 19.3 | 0.00 | 0.05 | 0.20 | 78 | 1017.7 |
| 20260505112704 | 10 | 26 | 9.7 | 19.3 | 0.00 | 0.05 | 0.20 | 79 | 1017.7 |
| 20260505112204 | 10 | 19 | 4.8 | 12.9 | 0.00 | 0.05 | 0.20 | 80 | 1017.7 |
| 20260505111704 | 10 | 355 | 9.7 | 14.5 | 0.00 | 0.05 | 0.20 | 80 | 1017.7 |
| 20260505111203 | 10 | 320 | 8.0 | 16.1 | 0.00 | 0.05 | 0.20 | 80 | 1017.8 |
| 20260505110703 | 10 | 24 | 14.5 | 19.3 | 0.00 | 0.05 | 0.20 | 80 | 1017.8 |
| 20260505110204 | 11 | 7 | 8.0 | 14.5 | 0.00 | 0.05 | 0.20 | 82 | 1017.7 |
| 20260505102204 | 9 | 5 | 9.7 | 20.9 | 0.00 | 0.05 | 0.20 | 86 | 1017.7 |
| 20260505101704 | 9 | 17 | 8.0 | 19.3 | 0.00 | 0.05 | 0.20 | 86 | 1017.7 |
| 20260505100704 | 10 | 32 | 11.3 | 19.3 | 0.00 | 0.05 | 0.20 | 87 | 1017.8 |
| 20260505100203 | 9 | 14 | 9.7 | 22.5 | 0.00 | 0.05 | 0.20 | 87 | 1017.9 |
| 20260505095704 | 9 | 20 | 9.7 | 19.3 | 0.00 | 0.05 | 0.20 | 87 | 1017.8 |